User: anonymous   Login
Location: Unspecified
(0.0000°N, 0.0000°E)
Time: 04:41:54
(UTC+00:00)
Language:

AMOS 1 - Orbit

View from above orbital plane
View from above orbital plane
View from above satellite
View from above satellite

Ground track
Ground track

The orbit data is extracted from the following two-line orbital elements,

1 23865U 96030B   15060.88492515 -.00000160  00000-0  00000+0 0  9993
2 23865 005.5649 060.1622 0008181 091.5427 098.9069 00.97117880 68509
Epoch (UTC): 01 March 2015 21:14:17
Eccentricity: 0.0008181
inclination: 5.5649°
perigee height: 36659 km
apogee height: 36729 km
right ascension of ascending node: 60.1622°
argument of perigee: 91.5427°
revolutions per day: 0.97117880
mean anomaly at epoch: 98.9069°
orbit number at epoch: 6850

The dashed part of the orbit path shows where the satellite is in the earth's shadow,  

DLR